Location: Little Elm
(33.1626°N, 96.9375°W)
Time: 21:20:13
(UTC+00:00)

Cosmos 1515 Rocket - Pass Details

Date: 06 July 2022
Orbit: 604 x 631 km, 82.5° (Epoch: 13 August)

Event Time Altitude Azimuth Distance (km) Brightness Sun altitude
Rises 09:24:21 0° 345° (NNW) 2,885 7.5 -20.8°
Reaches altitude 10° 09:26:39 10° 339° (NNW) 1,972 6.5 -20.4°
Maximum altitude 09:30:47 44° 268° (W) 849 3.9 -19.8°
Enters shadow 09:31:00 43° 259° (W) 854 3.9 -19.8°
